Погода в Новых Юрковичей

Россия / Брянская область     52°07′22″N   31°51′37″E
темп.,
°C
ветер,
м/с
пор.,
м/с
влажн.,
%
обл.,
%
осадки,
мм/ч
давл.,
гПа
погр.,
м
16 мая, вс
вс1600:00+11ююз23925 0.0 101129
03:00+10ю22935 0.0 101129
06:00+10ююз34945 0.0 101269
09:00+16ююз34760 0.0 1012439
12:00+19ююз336225 0.0 10121319
15:00+21ю3356100 0.1 10121517
18:00+20ююв3367100 0.0 1011810
21:00+16юв2280100 0.0 101116
17 мая, пн
пн1700:00+14в338595 0.0 101132
03:00+13всв3385100 0.0 101042
06:00+13св388997 0.0 1009165
09:00+17св4781100 0.2 1007341
12:00+22всв576752 0.0 1005930
15:00+24вюв685431 0.0 10031337
18:00+22юв69689 0.0 10021142
21:00+19в4108412 0.1 1001285
18 мая, вт
вт1800:00+17юв5149513 1.9 1001416
03:00+16юв6129699 1.9 1000518
06:00+14юв61295100 0.3 1000600
09:00+15ю71096100 0.4 1002647
12:00+19ю797287 0.1 10031199
15:00+20ююв7973100 1.6 10031143
18:00+19ююв698056 2.6 1003901
21:00+15ююв379299 4.8 1003181
19 мая, ср
ср1900:00+13юв2494100 0.0 100269
03:00+13вюв3795100 0.0 1001174
06:00+13в3699100 2.9 1000252
09:00+14юв3699100 9.0 1000432
12:00+13ю5893100 2.9 1001520
15:00+17ю5677100 3.0 10011083
18:00+15ююз5788100 0.3 1001600
21:00+11юз4796100 0.8 1002385
20 мая, чт
чт2000:00+9зюз61195100 0.3 1003588
03:00+9з81396100 3.8 1004668
06:00+9з71494100 1.7 1005802
09:00+10зюз71191100 1.8 1007842
12:00+13з7107822 0.2 10081067
15:00+15з577199 0.4 10091213
18:00+16сз4471100 0.2 1010714
21:00+12с2284100 0.2 101120